DECAYED
Showing default

GOMX4-A, 43197 (Decayed)

Orbit data source: Space-Track

GOMX4-A, 43197 was a payload satellite owned by FMI (DK) in LEO that was launched on Fri, 02 Feb 2018 UTC via a CHANG ZHENG 2D launch vehicle from the Jiuquan Satellite Launch Center, China (JSC). Payloads include a variety of satellites, spacecraft, and rockets equipped with specific instruments for various scientific and technological missions. These include communications satellites like Starlink; space stations such as the ISS; scientific satellites like the Hubble; Earth observation satellites from companies like Planet Labs, Umbra, and HawkEye 360; GPS; miniature CubeSats for education and research; and military/defense satellites.

Not visible in the next 10 days
GOMX4-A details
Identifier
43197, 2018-015F
Orbit
Decayed
Last TLE update4 months ago
Origin
Flag of DKFMI (DK / DEN)
ManufacturerGOMSpace
MissionDecayed Defense Imaging/Com
Bus & MotorCUBESAT 6U, Unknown motor
Mass8 kg wet, 8 kg dry
Launch date (UTC)
2018-02-02 (7 years ago)
Launch vehicle
CHANG ZHENG 2D
Launch site
Jiuquan Satellite Launch Center, China (JSC)
Object type
Payload
Rocket body
Debris
Shape & HBRBox, 0.3 m
Radar Cross Section0.105 m², Medium (>0.1 m² and < 1m²)

Expand to show TLE details & history

TLE from 4 months ago
0 GOMX4-A
1 43197U 18015F   24231.57785391  .12036390  27077-5  33718-3 0  9993
2 43197  97.5695  57.6561 0009227 255.6517 104.3760 16.44816160365796
Epoch: 2024-08-18T13:52Z
Definitive object data (Epoch: 2024-08-18T13:52:06.577Z)
Latitude-0.00008°
Longitude-117.79238°
Altitude157.776 km
Speed7.811 km/s
True Right ascension03h 50m 37s
True Declination0° 00' 00"
Sunlit
Object was in daylight at TLE epoch
Visualization observer readout
Observer readout values are unavailable because the object's trajectory could not be propagated. This is usually caused when the trajectory data is faulty or the object's orbit has decayed.
Visualization observer readout
Observer readout values are unavailable because the object's trajectory could not be propagated. This is usually caused when the trajectory data is faulty or the object's orbit has decayed.
Orbital elements
Apogee altitude155.855 km
Perigee altitude143.808 km
Semi-major axis6,527.968 km
Eccentricity0.0009227
Inclination97.5695°
RAAN57.6561°
Arg. of periapsis255.6517°
True anomaly104.47839°
Mean anomaly104.376°
Eccentric anomaly104.4272°
Mean motion4.11506 °/min
BSTAR0.00033718
Orbital period87.48 mins
Loading maneuver chart data...
Loading historical data...
Loading historical data...
Loading historical data...
Loading historical data...
Loading historical data...
Loading historical data...
Loading historical data...

GOMX4-A Visibility forecast

Observer location: undefined°, undefined

This satellite is decayed
Span
Click to sort rows by Start time (UTC) header in descending order
Start Az.
Max El. time (UTC)
Max El. Az.
Max El.
End time (UTC)
End Az.
|